Weather Roundup
Issued by NWS Chicago, IL

Home | Current Version | Previous Version | Graphics & Text | Print | Product List | Glossary On
Versions: 1 2 3 4 5 6 7 8 9 10 11 12 13 14 15 16 17 18 19 20 21 22 23 24 25 26 27 28 29 30 31 32 33 34 35 36 37 38 39 40 41 42 43 44 45 46 47 48 49 50
000
NZUS59 KLOT 011809
HRRLOT

CHICAGO AREA WEATHER ROUNDUP
NATIONAL WEATHER SERVICE CHICAGO/ROMEOVILLE IL
100 PM CDT SAT OCT 01 2016

NOTE: "FAIR" INDICATES FEW OR NO CLOUDS BELOW 12,000 FEET WITH NO
SIGNIFICANT WEATHER AND/OR OBSTRUCTIONS TO VISIBILITY.

* THESE STATIONS ARE NOT UNDER NWS QUALITY CONTROL. THEY ALSO MAY NOT
  REPORT WEATHER SUCH AS PRECIPITATION OR FOG.

ILZ005-006-012>014-019>023-011900-
NORTHEAST ILLINOIS

CITY           SKY/WX    TMP DP  RH WIND       PRES   REMARKS
OHARE          CLOUDY    62  59  90 N6        30.00F
6HR MIN TEMP:  58; 6HR MAX TEMP:  62; 6HR PCP:  0.77;

MIDWAY         CLOUDY    62  59  90 VRB3      29.99F
6HR MIN TEMP:  59; 6HR MAX TEMP:  62; 6HR PCP:  0.85;

AURORA         RAIN      59  57  93 W5        30.02F FOG
6HR MIN TEMP:  54; 6HR MAX TEMP:  63; 6HR PCP:  0.77;

LANSING*       LGT RAIN  61  61 100 NW3       29.99F
JOLIET*        RAIN      61  61  98 NW3       30.01S
WAUKEGAN       LGT RAIN  61  59  93 N6        30.00F FOG
6HR MIN TEMP:  59; 6HR MAX TEMP:  62; 6HR PCP:  0.22;

DUPAGE AIRPORT LGT RAIN  62  58  86 NE9       30.01F
6HR MIN TEMP:  53; 6HR MAX TEMP:  62; 6HR PCP:  0.46;

WHEELING       CLOUDY    62  59  90 N5        30.01F
6HR MIN TEMP:  59; 6HR MAX TEMP:  62; 6HR PCP:  0.85;

KANKAKEE*      CLOUDY    63  59  88 CALM      30.01F
MORRIS*        CLOUDY    61  58  90 CALM      30.01S
LEWIS AIRPORT* RAIN      60  60 100 NW5       30.01S
NORTHERLY ISL    N/A     62  59  90 NE2         N/A
$$

WIZ051-052-058>065-066-070>072-011900-
SOUTHEAST WISCONSIN

CITY           SKY/WX    TMP DP  RH WIND       PRES   REMARKS
MILWAUKEE      LGT RAIN  61  58  90 N9        30.03F VSB 1
6HR MIN TEMP:  59; 6HR MAX TEMP:  61; 6HR PCP:  0.09;

KENOSHA*       LGT RAIN  61  59  93 N8        30.02F FOG
RACINE*        LGT RAIN  60  58  92 N9        30.03F
BURLINGTON     CLOUDY    58  57  94 N6        30.03F
WEST BEND      DRIZZLE   68  68 100 N6        30.05S
$$

INZ001>003-010>013-019-020-011900-
NORTHWEST INDIANA

CITY           SKY/WX    TMP DP  RH WIND       PRES   REMARKS
GARY*          PTSUNNY   64  63  94 NE8       29.99F
MICHIGAN CITY* NOT AVBL
RENSSELAER*    NOT AVBL
VALPARAISO     HVY RAIN  60  58  92 SW6       29.99F
$$

LMZ740>746-011900-
SOUTHERN LAKE MICHIGAN

STATION/POSITION TIME  SKY/WX   TEMP WIND        PRES    VSBY
                                AIR  DIR/SP/G
                 (UTC)          (F)  (DEG/KT/KT) (MB)    (MI)
HARRISON CRIB    1740            63   60/ 10/ 10   N/A
BURNHAM HARBOR   1800            62   50/  3/  6   N/A
CALUMET HARBOR   1748            62   40/  5/  8 1015.3F
BURNS HARBOR     1740            63   50/ 10/ 11 1015.9F
MICHIGAN CITY    1740            60   10/  9/ 10   N/A
$$

ABBREVIATIONS USED IN REMARKS
   TC - TEMPERATURE IN CELSIUS
  WCI - WIND CHILL INDEX
   HX - HEAT INDEX
  VSB - VISIBILITY
$$




USA.gov is the U.S. government's official web portal to all federal, state and local government web resources and services.